Location: Greenwich
(51.4790°N, 0.0090°E)
Time: 08:44:15
(UTC+01:00)

Explorer 7 - Pass Details

Date: 17 April 2024
Orbit: 467 x 625 km, 50.3° (Epoch: 24 May)

Event Time Altitude Azimuth Distance (km) Brightness Sun altitude
Rises 16:19:00 0° 270° (W) 2,912 11.4 32.7°
Reaches altitude 10° 16:21:21 10° 269° (W) 1,996 10.8 32.4°
Maximum altitude 16:25:57 77° 185° (S) 632 7.8 31.8°
Drops below altitude 10° 16:30:23 10° 99° (E) 1,925 9.2 31.1°
Sets 16:32:36 0° 98° (E) 2,800 10.0 30.8°
